CW3094 Weather Reports


Display with metric or nautical units.
time (UTC)temp
F
wind
direction
speed
MPH
gust
MPH
rain 1hr
in
rain 24hr
in
rain mn
in
humidity
%
barometer
mb
20170626190402 79 282 4.0 8.0 0.00 0.00 0.00 43 1014.5
20170626185404 81 268 3.0 8.0 0.00 0.00 0.00 41 1014.5
20170626184402 81 263 2.0 6.0 0.00 0.00 0.00 42 1014.5
20170626183403 79 296 2.0 9.0 0.00 0.00 0.00 47 1014.7
20170626182404 78 326 1.0 9.0 0.00 0.00 0.00 48 1014.8
20170626181401 77 222 2.0 5.0 0.00 0.00 0.00 52 1014.8
20170626180403 76 23 2.0 7.0 0.00 0.00 0.00 50 1014.9
20170626175404 78 11 3.0 6.0 0.00 0.00 0.00 47 1015.0
20170626174401 77 253 3.0 7.0 0.00 0.00 0.00 54 1015.0
20170626173402 78 345 1.0 6.0 0.00 0.00 0.00 48 1015.1
20170626172403 78 261 1.0 7.0 0.00 0.00 0.00 47 1015.4
20170626171401 78 279 2.0 7.0 0.00 0.00 0.00 45 1015.5
20170626170402 78 239 2.0 6.0 0.00 0.00 0.00 47 1015.7
20170626165404 78 299 2.0 8.0 0.00 0.00 0.00 51 1015.8
20170626164401 75 215 2.0 7.0 0.00 0.00 0.00 53 1015.9
20170626163402 74 246 1.0 8.0 0.00 0.00 0.00 57 1016.1
20170626162405 74 267 4.0 9.0 0.00 0.00 0.00 54 1016.1
20170626161401 74 274 1.0 5.0 0.00 0.00 0.00 56 1016.2
20170626160402 73 297 2.0 5.0 0.00 0.00 0.00 56 1016.2
20170626155404 73 336 3.0 5.0 0.00 0.00 0.00 52 1016.1
20170626154401 73 225 2.0 6.0 0.00 0.00 0.00 55 1016.2
20170626153402 74 304 2.0 7.0 0.00 0.00 0.00 53 1016.2
20170626152404 74 271 5.0 10.0 0.00 0.00 0.00 55 1016.2
20170626151401 73 239 3.0 7.0 0.00 0.00 0.00 57 1016.3
20170626150403 72 274 3.0 6.0 0.00 0.00 0.00 55 1016.4
20170626145404 71 327 2.0 8.0 0.00 0.00 0.00 61 1016.4
20170626144402 71 248 2.0 8.0 0.00 0.00 0.00 66 1016.4
20170626143403 69 242 3.0 7.0 0.00 0.00 0.00 69 1016.3
20170626142405 68 287 4.0 9.0 0.00 0.00 0.00 63 1016.3
20170626141401 67 309 2.0 7.0 0.00 0.00 0.00 71 1016.3
20170626140402 67 231 1.0 5.0 0.00 0.00 0.00 72 1016.4
20170626135403 66 302 3.0 8.0 0.00 0.00 0.00 75 1016.4
20170626134401 65 251 2.0 9.0 0.00 0.00 0.00 76 1016.5
20170626133403 64 232 1.0 7.0 0.00 0.00 0.00 78 1016.5
20170626132404 64 248 2.0 7.0 0.00 0.00 0.00 82 1016.4
20170626131402 64 252 3.0 7.0 0.00 0.00 0.00 84 1016.5
20170626130404 63 338 2.0 5.0 0.00 0.00 0.00 84 1016.5
20170626125405 62 293 3.0 7.0 0.00 0.00 0.00 87 1016.5
20170626124400 62 220 4.0 7.0 0.00 0.00 0.00 89 1016.4
20170626123402 61 220 2.0 5.0 0.00 0.00 0.00 91 1016.5
20170626122404 61 236 2.0 7.0 0.00 0.00 0.00 92 1016.4
20170626121402 60 264 1.0 3.0 0.00 0.00 0.00 95 1016.4
20170626120404 59 254 1.0 3.0 0.00 0.00 0.00 95 1016.3
20170626115405 58 235 2.0 6.0 0.00 0.00 0.00 96 1016.2
20170626114402 57 241 2.0 5.0 0.00 0.00 0.00 97 1016.2
20170626113403 57 240 1.0 5.0 0.00 0.00 0.00 97 1016.0
20170626112404 56 217 1.0 3.0 0.00 0.00 0.00 99 1016.0
20170626111401 56 221 1.0 5.0 0.00 0.00 0.00 99 1016.1
20170626110402 55 242 2.0 7.0 0.00 0.00 0.00 100 1016.0
20170626105404 54 237 1.0 2.0 0.00 0.00 0.00 100 1016.0
20170626104402 54 247 1.0 2.0 0.00 0.00 0.00 100 1015.9
20170626103403 54 275 0.0 0.0 0.00 0.00 0.00 100 1015.8
20170626102404 53 275 0.0 0.0 0.00 0.00 0.00 99 1015.5
20170626101401 53 275 0.0 0.0 0.00 0.00 0.00 97 1015.5
20170626100403 54 275 0.0 0.0 0.00 0.00 0.00 97 1015.4
20170626095403 54 275 0.0 1.0 0.00 0.00 0.00 97 1015.3
20170626094401 54 292 1.0 5.0 0.00 0.00 0.00 97 1015.1
20170626093402 54 255 0.0 3.0 0.00 0.00 0.00 97 1015.0
20170626092403 54 255 1.0 6.0 0.00 0.00 0.00 99 1015.0
20170626091402 53 256 1.0 5.0 0.00 0.00 0.00 99 1014.9
20170626090403 53 248 1.0 3.0 0.00 0.00 0.00 99 1014.7
20170626085404 53 249 0.0 1.0 0.00 0.00 0.00 99 1014.6
20170626084401 53 249 0.0 2.0 0.00 0.00 0.00 99 1014.7
20170626083402 53 232 0.0 1.0 0.00 0.00 0.00 99 1014.6
20170626082403 53 239 1.0 2.0 0.00 0.00 0.00 97 1014.5
20170626081401 54 252 0.0 2.0 0.00 0.00 0.00 97 1014.5
20170626080402 54 270 0.0 2.0 0.00 0.00 0.00 97 1014.5
20170626075404 54 6 1.0 3.0 0.00 0.00 0.00 97 1014.3
20170626074402 54 8 1.0 2.0 0.00 0.00 0.00 99 1014.2
20170626073402 53 271 0.0 2.0 0.00 0.00 0.00 100 1014.3
20170626072404 54 229 1.0 2.0 0.00 0.00 0.00 99 1014.2
20170626071401 54 233 0.0 1.0 0.00 0.00 0.00 99 1014.3
20170626070403 54 250 0.0 0.0 0.00 0.00 0.00 99 1014.4
20170626065404 55 250 1.0 1.0 0.00 0.00 0.00 99 1014.6
20170626064401 55 234 1.0 2.0 0.00 0.00 0.00 99 1014.7
20170626063403 55 264 0.0 1.0 0.00 0.00 0.00 97 1014.6
20170626062404 55 233 1.0 2.0 0.00 0.00 0.00 97 1014.8
20170626061402 55 234 0.0 0.0 0.00 0.00 0.00 96 1014.7
20170626060403 56 234 0.0 1.0 0.00 0.00 0.00 96 1014.9
20170626055405 56 251 0.0 0.0 0.00 0.00 0.00 96 1014.8
20170626054401 57 251 0.0 0.0 0.00 0.00 0.00 95 1014.8
20170626053402 57 251 0.0 0.0 0.00 0.00 0.00 95 1014.8
20170626052403 57 251 0.0 3.0 0.00 0.00 0.00 95 1014.7
20170626051401 57 290 0.0 2.0 0.00 0.00 0.00 95 1014.9
20170626050402 58 272 0.0 7.0 0.00 0.00 0.00 92 1015.0
20170626045404 58 237 1.0 3.0 0.00 0.00 0.00 91 1014.9
20170626044401 59 333 1.0 3.0 0.00 0.00 0.00 88 1014.9
20170626043403 59 283 0.0 7.0 0.00 0.00 0.00 86 1014.9
20170626042403 60 339 3.0 8.0 0.00 0.00 0.00 85 1015.0
20170626041401 60 340 1.0 7.0 0.00 0.00 0.00 85 1015.4
20170626040403 60 328 3.0 6.0 0.00 0.00 0.00 82 1015.0
20170626035404 61 7 4.0 8.0 0.00 0.00 0.00 81 1015.0
20170626034401 62 165 1.0 9.0 0.00 0.00 0.00 80 1015.0
20170626033403 62 348 6.0 12.0 0.00 0.01 0.00 76 1015.3
20170626032405 62 275 5.0 9.0 0.00 0.01 0.00 78 1015.1
20170626031401 63 289 3.0 9.0 0.00 0.01 0.00 80 1015.0
20170626030402 63 317 1.0 8.0 0.00 0.01 0.00 84 1014.7
20170626025403 62 275 1.0 3.0 0.00 0.01 0.00 87 1014.7
20170626024401 63 2 0.0 0.0 0.00 0.01 0.00 85 1014.6
20170626023402 64 2 0.0 1.0 0.00 0.01 0.00 82 1014.6
20170626022404 65 239 0.0 0.0 0.00 0.01 0.00 82 1014.6
20170626021402 66 239 0.0 0.0 0.00 0.01 0.00 85 1014.5
20170626020403 66 239 0.0 3.0 0.00 0.01 0.00 82 1014.4
20170626015404 66 357 0.0 6.0 0.00 0.01 0.00 82 1014.3
20170626014402 67 54 0.0 7.0 0.00 0.01 0.00 84 1014.2
20170626013403 67 322 3.0 6.0 0.00 0.01 0.00 86 1013.9
20170626012404 67 338 3.0 6.0 0.00 0.01 0.00 87 1013.5
20170626011403 67 244 2.0 5.0 0.00 0.01 0.00 90 1013.2
20170626010404 67 241 2.0 6.0 0.00 0.01 0.00 90 1013.1
20170626005406 67 246 3.0 6.0 0.00 0.01 0.00 90 1013.0
20170626004402 67 233 1.0 3.0 0.00 0.01 0.00 89 1013.0
20170626003404 67 227 2.0 7.0 0.00 0.01 0.00 87 1012.9
20170626002404 68 255 0.0 5.0 0.00 0.01 0.00 89 1012.9
20170626001402 68 221 1.0 3.0 0.00 0.01 0.00 87 1012.8
20170626000403 69 236 2.0 2.0 0.00 0.01 0.00 85 1012.7
20170625235406 69 224 1.0 2.0 0.00 0.01 0.00 82 1012.7
20170625234403 71 199 0.0 0.0 0.00 0.01 0.00 79 1012.6
20170625233403 71 222 0.0 1.0 0.00 0.01 0.00 76 1012.6
20170625232404 71 213 0.0 2.0 0.00 0.01 0.00 74 1012.5
20170625231402 72 198 0.0 5.0 0.00 0.01 0.00 73 1012.4
20170625230404 73 227 0.0 5.0 0.00 0.01 0.00 72 1012.2
20170625225404 73 298 0.0 3.0 0.00 0.01 0.00 69 1012.1
20170625224402 73 237 0.0 3.0 0.00 0.01 0.00 67 1011.9
20170625223404 73 233 2.0 5.0 0.00 0.01 0.00 65 1011.8
20170625222404 74 257 1.0 7.0 0.00 0.01 0.00 64 1011.8
20170625221401 74 284 1.0 8.0 0.00 0.01 0.00 61 1011.8
20170625220403 75 237 2.0 10.0 0.00 0.01 0.00 60 1011.8
20170625215404 76 218 1.0 8.0 0.00 0.01 0.00 57 1011.8
20170625214402 77 278 2.0 7.0 0.00 0.01 0.00 56 1011.7
20170625213403 78 256 3.0 13.0 0.00 0.01 0.00 53 1011.8
20170625212405 79 245 4.0 9.0 0.00 0.01 0.00 55 1012.0
20170625211401 80 2 1.0 7.0 0.00 0.01 0.00 53 1012.0
20170625210403 80 218 1.0 7.0 0.00 0.01 0.00 56 1012.1
20170625205404 79 240 3.0 7.0 0.00 0.01 0.00 56 1012.1
20170625204401 78 227 2.0 5.0 0.00 0.01 0.00 59 1012.2
20170625203403 78 248 3.0 7.0 0.00 0.01 0.00 53 1012.2
20170625202404 79 222 1.0 7.0 0.00 0.01 0.00 56 1012.2
20170625201401 78 278 2.0 5.0 0.00 0.01 0.00 59 1012.5
20170625200403 77 231 1.0 5.0 0.00 0.01 0.00 64 1012.5
20170625195404 77 231 3.0 8.0 0.00 0.01 0.00 58 1012.7
20170625194402 77 249 2.0 6.0 0.00 0.01 0.00 62 1012.8
20170625193403 74 323 1.0 5.0 0.00 0.01 0.00 70 1013.0
20170625192405 75 164 0.0 3.0 0.00 0.01 0.00 72 1013.3
20170625191402 75 234 1.0 3.0 0.00 0.01 0.00 55 1013.2